Location: Br�nnthal
(49.3900°N, 11.6530°E)
Time: 00:21:35
(UTC+00:00)

Daily predictions for brighter satellites

Satellite Brightness Start Highest point End
(mag) Time Altitude Azimuth Time Altitude Azimuth Time Altitude Azimuth
SL-16 R/B 3.5 00:12:20 44° NNE 00:12:20 44° NNE 00:16:53 10° N
Cosmos 1943 Rocket 4.0 00:17:17 25° NNW 00:17:17 25° NNW 00:20:28 10° NNE
CZ-2D R/B 3.9 00:17:53 10° NNE 00:20:45 27° NE 00:20:45 27° NE
ATLAS 5 CENTAUR R/B 4.4 00:26:24 14° ENE 00:26:24 14° ENE 00:27:12 10° NE
Cosmos 2297 Rocket 3.6 00:25:01 10° NNW 00:28:49 35° NNE 00:28:49 35° NNE
Resurs 1-4 Rocket 3.6 00:31:49 10° NNE 00:34:54 33° NE 00:34:54 33° NE
Cosmos 2369 Rocket 3.8 00:41:05 27° NNW 00:41:05 27° NNW 00:44:40 10° NNE
CZ-4C R/B 4.1 00:47:10 23° NW 00:48:41 26° NNW 00:54:13 10° NE
USA 267 4.2 00:50:01 10° ENE 00:54:57 36° ESE 00:54:57 36° ESE
SL-8 Rocket 4.4 01:07:16 10° N 01:12:13 57° NNW 01:12:13 57° NNW
Cosmos 2218 Rocket 4.1 01:18:31 10° N 01:24:06 68° NNW 01:24:06 68° NNW
Cosmos 2366 rocket 4.1 01:21:07 10° N 01:26:34 68° NNW 01:26:34 68° NNW
Cosmos 2227 Rocket 3.3 01:21:57 10° NNW 01:25:13 36° NNW 01:25:13 36° NNW
Cosmos 1656 4.1 01:30:38 54° E 01:30:38 54° E 01:35:29 10° NE
Lacrosse 5 3.5 01:32:48 26° ESE 01:32:48 26° ESE 01:36:07 10° ENE
USA 234 3.3 01:26:13 10° ESE 01:32:44 77° NNE 01:37:43 19° NW
ADEOS II 2.3 01:33:39 10° NNE 01:38:28 66° ENE 01:38:28 66° ENE
CZ-4B R/B 3.8 01:36:24 10° NNE 01:40:47 65° NE 01:40:47 65° NE
SL-08 R/B 3.8 01:47:14 56° NNE 01:47:14 56° NNE 01:51:08 10° N
Cosmos 2181 Rocket 4.1 01:47:57 59° NW 01:47:57 59° NW 01:53:36 10° N
SL-08 R/B 4.4 01:42:13 10° N 01:48:40 88° W 01:49:27 71° S
Cosmos 1633 Rocket 4.3 01:46:14 10° N 01:48:58 37° N 01:48:58 37° N
IDEFIX/ARIANE 42P 3.8 01:46:55 10° NNE 01:51:49 37° E 01:53:40 29° SE
SL-16 R/B 3.9 01:57:26 23° NW 01:57:26 23° NW 02:00:15 10° NNW
Cosmos 1241 Rocket 4.5 01:54:48 64° WNW 01:55:15 66° NW 02:01:40 10° NE
IRS-1C 4.3 01:50:04 10° NNE 01:55:24 65° ESE 01:55:57 61° SE
Cosmos 2369 4.5 01:54:42 40° SE 01:55:55 46° ESE 02:01:22 10° NE
Cosmos 1606 4.4 01:59:13 29° N 01:59:13 29° N 02:01:11 10° N
Cosmos 1151 Rocket 3.6 02:00:39 55° ENE 02:00:39 55° ENE 02:04:30 10° NNE
ARIANE 5 R/B 3.0 01:55:56 10° NNE 02:00:58 56° E 02:01:50 49° SE
IRS-1D 3.6 01:56:41 10° N 02:01:47 70° NW 02:01:47 70° NW
CZ-2D R/B 3.1 01:58:03 10° N 02:02:04 34° NW 02:02:04 34° NW
ATLAS 5 CENTAUR R/B 2.7 02:07:56 36° NNW 02:07:56 36° NNW 02:12:06 10° NE
NPP 4.4 02:04:02 10° N 02:08:28 38° NW 02:08:28 38° NW
CBERS-1 4.1 02:09:10 10° N 02:13:59 58° WNW 02:13:59 58° WNW
Cosmos 2297 Rocket 4.1 02:09:15 10° NW 02:10:32 16° NW 02:10:32 16° NW
Resurs 1-4 Rocket 3.3 02:12:06 10° N 02:15:58 28° NW 02:15:58 28° NW
Cosmos 1933 3.8 02:18:15 58° N 02:18:15 58° N 02:21:36 10° N
Cosmos 2082 3.6 02:13:15 10° NNW 02:18:55 69° WSW 02:20:23 49° S
USA 305 3.5 02:22:42 45° SE 02:22:42 45° SE 02:26:34 10° ENE
Meteor 1-26 Rocket 4.3 02:24:04 35° S 02:26:22 69° E 02:31:45 10° NNE
USA 306 3.4 02:26:37 49° SE 02:26:37 49° SE 02:30:39 10° ENE
X-37B 2.9 02:29:08 19° ESE 02:29:08 19° ESE 02:30:20 10° ESE
CZ-2D R/B 3.7 02:23:53 10° NNE 02:28:04 69° ESE 02:28:45 57° SSE
SJ 16-02 3.0 02:25:04 10° N 02:29:04 34° ENE 02:33:05 10° SE
Meteor 1-25 Rocket 4.2 02:24:57 10° NNW 02:30:44 69° W 02:33:00 38° S
Gbstr 26 Del rocket 4.5 02:27:26 24° WNW 02:32:50 83° NNE 02:40:21 10° ESE
Cosmos 389 Rocket 3.4 02:32:18 40° ESE 02:32:51 44° E 02:36:16 10° NNE
Cosmos 1697 Rocket 2.6 02:32:33 50° SSW 02:34:06 87° WNW 02:39:46 10° NNE
ASTEX 1 3.4 02:29:08 10° N 02:34:10 81° E 02:36:22 34° S
IRS-P3 4.2 02:29:16 10° N 02:34:32 60° WNW 02:35:28 52° WSW
H-2A R/B 2.6 02:32:55 10° SSE 02:37:13 60° ENE 02:41:37 10° N
CZ-2C R/B 4.1 02:33:33 10° NNE 02:38:08 32° E 02:42:45 10° SSE
Cosmos 1980 Rocket 2.6 02:35:19 28° S 02:38:13 59° ESE 02:43:48 10° NE
USA 267 3.2 02:32:54 10° ENE 02:39:28 83° NNW 02:42:17 38° WSW
ERS-2 3.8 02:37:19 10° SE 02:40:40 35° ENE 02:44:02 10° N
Iridium 2 4.0 02:39:47 44° SSE 02:40:46 62° E 02:44:29 10° NNE
Cosmos 1602 3.7 02:39:49 10° NNW 02:43:13 63° NW 02:43:13 63° NW
ERS-1 4.5 02:39:11 10° N 02:44:16 65° WNW 02:45:42 45° SW
Cosmos 2263 Rocket 2.7 02:39:36 10° NNW 02:45:12 60° ENE 02:50:49 10° SE
Helios 1B 4.4 02:43:13 15° SSE 02:46:50 88° W 02:51:11 10° NNW
SL-8 R/B 3.6 02:46:01 54° WSW 02:46:54 68° SSW 02:51:38 10° ESE
Meteor 1-14 Rocket 4.1 02:41:51 10° NNW 02:47:31 85° W 02:53:05 10° S
Cosmos 1818 4.5 02:46:11 31° WNW 02:47:42 36° NW 02:52:45 10° NNE
SL-16 R/B 4.3 02:47:10 10° SSE 02:51:38 24° ESE 02:56:07 10° NE
ATLAS 2AS CENTAUR R/B 4.0 02:44:21 10° NW 02:51:39 42° NNE 02:58:24 10° E
USA 307 2.9 02:52:25 52° SSW 02:53:18 70° SSE 02:57:33 10° ENE
Cosmos 1821 Rocket 4.3 02:47:59 10° NNW 02:53:56 45° W 02:56:29 30° SW
Cosmos 1470 Rocket 3.8 02:51:11 10° NNW 02:55:24 45° W 02:55:25 45° W
Cosmos 1812 4.0 02:52:29 10° SSE 02:56:04 39° E 02:59:42 10° NNE
Cosmos 2227 4.3 02:50:31 10° NNW 02:56:13 75° ENE 03:01:50 10° SE
USA 308 2.9 02:55:23 49° SW 02:56:23 73° SSE 03:00:39 10° ENE
Spot 4 Rocket 3.9 02:52:02 10° NNE 02:57:11 73° WNW 02:59:44 30° SSW
Cosmos 1500 3.4 02:56:36 10° N 03:00:28 71° E 03:04:16 10° SSE
Cosmos 972 4.4 02:59:29 22° SSW 03:02:47 80° ESE 03:07:40 10° NNE
Landsat 5 3.5 03:00:46 10° S 03:05:17 74° WSW 03:09:48 10° NNW
Cosmos 1666 4.2 03:02:40 10° N 03:06:18 38° ENE 03:09:52 10° SE
Meteor 1-5 Rocket 4.2 03:01:39 10° N 03:06:59 79° ENE 03:12:21 10° SSE
Cosmos 1934 Rocket 3.9 03:03:10 10° NNW 03:09:04 57° W 03:14:59 10° S
Cosmos 1782 3.0 03:10:11 39° WSW 03:11:10 49° WNW 03:15:06 10° N
IRIDIUM 104 4.5 03:05:57 10° N 03:11:12 75° E 03:16:25 10° S
Cosmos 1238 Rocket 4.0 03:04:47 10° NNW 03:11:20 62° W 03:17:28 10° S
Cosmos 1898 Rocket 4.1 03:08:45 10° NNW 03:13:58 61° ENE 03:19:10 10° SE
Lacrosse 5 1.8 03:12:00 31° WSW 03:14:26 78° NNW 03:19:33 10° NE
ADEOS Rocket 3.4 03:09:02 10° SSE 03:15:52 76° ENE 03:22:00 10° NNW
CZ-4B R/B 2.7 03:13:02 10° SE 03:16:00 40° ENE 03:19:03 10° N
USA 234 3.6 03:09:56 10° SSE 03:16:05 43° SW 03:22:15 10° WNW
Cosmos 1515 Rocket 3.9 03:15:08 31° SW 03:16:43 44° WNW 03:21:01 10° N
CZ-2C R/B 2.8 03:13:14 10° N 03:16:56 57° WNW 03:18:32 31° SW
ADEOS II 3.4 03:14:14 10° N 03:18:08 21° WNW 03:19:23 20° WNW
IRIDIUM 114 4.3 03:15:06 10° N 03:20:22 89° E 03:25:35 10° S
USA 276 2.1 03:21:38 40° W 03:22:39 85° N 03:25:54 10° E
USA 32 4.4 03:19:15 10° N 03:24:30 67° E 03:29:43 10° SSE
MSX 3.9 03:22:00 10° N 03:27:39 57° WNW 03:32:39 13° SW
Cosmos 44 3.1 03:24:49 21° SW 03:27:45 87° SE 03:32:28 10° NE
Cosmos 1356 4.1 03:24:45 10° NNW 03:27:53 32° W 03:28:27 30° WSW
IRIDIUM 103 4.2 03:24:15 10° N 03:29:29 78° W 03:34:42 10° S
Cosmos 1707 Rocket 4.4 03:25:54 10° S 03:30:06 52° E 03:34:20 10° NNE
IDEFIX/ARIANE 42P 3.2 03:26:35 10° N 03:31:24 37° WNW 03:34:28 20° WSW
Cosmos 921 Rocket 2.8 03:27:48 13° SSW 03:31:31 88° WNW 03:35:44 10° NNE
Cosmos 1605 Rocket 4.1 03:25:36 10° NNW 03:31:52 60° W 03:38:08 10° S
Cosmos 2278 3.9 03:28:10 20° SW 03:32:05 57° WNW 03:37:44 10° NNE
Meteor 1-11 Rocket 3.8 03:26:16 10° N 03:32:09 84° ENE 03:37:50 10° SSE
Cosmos 1933 Rocket 4.4 03:28:57 10° NNW 03:32:38 27° W 03:34:18 21° SW
CZ-3B R/B 3.2 03:32:05 19° WNW 03:34:31 55° N 03:45:48 10° ENE
Cosmos 2228 Rocket 3.2 03:31:12 14° SSW 03:34:50 54° WNW 03:39:11 10° N
SAR-Lupe-4 4.0 03:34:05 10° SSE 03:37:39 67° ENE 03:41:14 10° N
ARIANE 5 R/B 3.7 03:35:38 10° N 03:39:45 25° WNW 03:42:10 18° W
Cosmos 2369 4.4 03:36:41 19° WSW 03:40:14 38° NW 03:45:34 10° NNE
Cosmos 1937 Rocket 3.7 03:37:56 10° NNW 03:43:07 76° ENE 03:48:15 10° SSE
CZ-4C R/B 4.2 03:42:39 18° SW 03:44:12 24° W 03:47:11 10° NW
ALOS 3.2 03:42:10 10° NNE 03:46:45 52° E 03:51:18 10° S
Cosmos 1733 Rocket 3.6 03:42:36 10° N 03:46:57 62° ENE 03:51:14 10° SSE
IRIDIUM 106 4.4 03:42:40 10° NNW 03:47:47 55° W 03:52:51 10° SSW
Meteor 1-27 Rocket 4.1 03:42:19 10° S 03:48:14 75° E 03:54:09 10° NNE
SAR-Lupe-1 4.0 03:46:22 10° SSE 03:49:57 89° ENE 03:53:33 10° NNW
Cosmos 1536 2.9 03:46:38 10° N 03:50:44 88° E 03:54:48 10° S
Cosmos 1869 Rocket 3.9 03:47:40 10° NNW 03:51:46 40° W 03:55:49 10° SSW
ATLAS 5 CENTAUR R/B 3.9 03:50:29 10° NW 03:53:39 18° N 03:57:08 10° NE
Cosmos 1484 Rocket 3.3 03:51:39 10° NNE 03:55:36 65° ESE 03:59:34 10° S
GENESIS II 4.3 03:51:53 10° SW 03:55:55 82° SE 03:59:59 10° NE
Meteor 1-4 Rocket 2.5 03:53:39 10° SSW 03:57:04 57° WNW 04:00:33 10° N
USA 305 3.2 03:58:51 14° W 04:02:29 59° NNW 04:06:42 10° ENE
X-37B 1.6 04:01:25 14° WSW 04:03:41 33° S 04:06:35 10° SE
Cosmos 1862 Rocket 4.3 03:59:34 10° S 04:03:53 58° E 04:08:11 10° NNE
Cosmos 1689 Rocket 2.4 04:01:28 10° SSE 04:04:25 70° ENE 04:07:23 10° N
Meteor 1-31 Rocket 3.1 04:02:34 10° NNE 04:06:23 69° ESE 04:10:12 10° S
Cosmos 2100 Rocket 4.0 04:00:09 10° NNW 04:06:33 77° W 04:12:54 10° S
USA 306 3.2 04:02:46 12° W 04:06:34 57° NNW 04:10:47 10° ENE
Cosmos 1727 Rocket 4.1 04:01:15 10° SSW 04:07:31 62° WNW 04:13:49 10° N
Cosmos 1763 Rocket 3.6 04:02:15 10° SSW 04:07:35 87° WNW 04:12:56 10° NNE
SJ 16-02 2.1 04:03:45 10° NW 04:07:35 30° W 04:11:25 10° SSW
Cosmos 389 Rocket 4.3 04:06:11 12° W 04:07:49 15° WNW 04:10:01 10° NNW
PSLV R/B 4.1 04:04:57 10° N 04:08:50 36° WNW 04:12:40 10° SW
Cosmos 1802 Rocket 4.1 04:02:41 10° N 04:08:54 86° E 04:15:10 10° S
Cosmos 2360 Rocket 3.4 04:06:54 10° S 04:12:16 45° ESE 04:17:38 10° NE
Cosmos 1437 Rocket 4.4 04:08:58 10° SSE 04:12:28 37° E 04:16:02 10° NNE
H-2A R/B 3.5 04:10:39 10° SW 04:13:35 17° W 04:16:34 10° NW
ERS-2 3.4 04:11:30 10° SW 04:14:19 21° W 04:17:09 10° NW
CZ-2C R/B 3.0 04:11:40 10° N 04:16:25 41° WNW 04:21:13 10° SW
Cosmos 1697 Rocket 4.1 04:14:41 10° W 04:18:54 21° NW 04:23:10 10° N
NOSS 3-4 (A) 3.9 04:12:10 10° NW 04:19:07 82° SW 04:26:50 10° SE
NOSS 3-4 (C) 3.9 04:12:16 10° NW 04:19:13 82° SW 04:26:57 10° SE
METEOR-M 4.3 04:15:28 10° NNE 04:20:52 86° ESE 04:26:13 10° SSW
USA 267 3.9 04:15:55 10° ENE 04:22:10 49° N 04:28:24 10° W
Cosmos 1980 Rocket 3.2 04:17:38 10° WSW 04:22:36 30° NW 04:27:36 10° NNE
FENGYUN 3A 3.7 04:18:47 10° NNE 04:24:12 78° WNW 04:29:35 10° SSW
Cosmos 1844 4.2 04:19:39 10° NNW 04:25:14 66° ENE 04:30:46 10° SE
Cosmos 2322 Rocket 2.3 04:21:51 10° SSW 04:27:32 84° WNW 04:33:17 10° NNE
Cosmos 1459 Rocket 4.0 04:22:16 10° NNW 04:28:15 58° W 04:34:10 10° S
